Tracking 31027 objects as of 19-Jul-2025
HD Live streaming from Space Station
objects crossing your sky now

SL-12 R/B(2)

Track SL-12 R/B(2) now!


NORAD ID: 26855
Int'l Code: 2001-025C
Perigee: 7,847.9 km
Apogee: 35,512.3 km
Inclination: 14.9 °
Period: 779.3 minutes
Semi major axis: 28051 km
RCS: 1.9952 m2 (large)
Launch date: June 16, 2001
Source: Commonwealth of Independent States (former USSR) (CIS)
Launch site: TYURATAM MISSILE AND SPACE COMPLEX (TTMTR)

Note: This is a ROCKET BODY
Your satellite tracking list
STARLINK-30236
Track 1 satellite(s)




NASA's NSSDC Master Catalog

Two Line Element Set (TLE):
1 26855U 01025C   25199.35625721 -.00000067  00000-0  00000-0 0  9995
2 26855  14.8890 137.5018 4931073 205.9827 106.3155  1.84789804162608
Source of the keplerian elements: AFSPC